This is the latest recevied weather packets stored in our database for station/object N5LSN. If no packets are shown the sender has not sent any weather packets the latest 10 day(s).
| Time | Temp. | Humidity | Pressure | Rain* | Wind** | Luminosity | Snow |
|---|---|---|---|---|---|---|---|
| 1777829680 | 22.22° C | 47% | 1020.6 hPa | 0 mm | - | 957 W/m² | - |
| 1777829377 | 22.78° C | 52% | 1020.9 hPa | 0 mm | - | 955 W/m² | - |
| 1777829075 | 22.22° C | 49% | 1020.9 hPa | 0 mm | - | 952 W/m² | - |
| 1777828771 | 21.67° C | 49% | 1020.9 hPa | 0 mm | - | 948 W/m² | - |
| 1777828468 | 21.67° C | 52% | 1021.2 hPa | 0 mm | - | 944 W/m² | - |
| 1777828165 | 21.11° C | 50% | 1021.3 hPa | 0 mm | - | 940 W/m² | - |
| 1777827861 | 21.67° C | 47% | 1021.3 hPa | 0 mm | - | 934 W/m² | - |
| 1777827559 | 21.67° C | 51% | 1021.4 hPa | 0 mm | - | 926 W/m² | - |
| 1777827256 | 21.67° C | 49% | 1021.5 hPa | 0 mm | - | 921 W/m² | - |
| 1777826952 | 21.67° C | 45% | 1021.6 hPa | 0 mm | - | 913 W/m² | - |
| 1777826649 | 21.11° C | 47% | 1021.6 hPa | 0 mm | - | 910 W/m² | - |
| 1777826345 | 21.11° C | 46% | 1021.6 hPa | 0 mm | - | 900 W/m² | - |
| 1777826044 | 21.11° C | 48% | 1021.7 hPa | 0 mm | - | 895 W/m² | - |
| 1777825740 | 21.11° C | 49% | 1021.8 hPa | 0 mm | - | 888 W/m² | - |
| 1777825438 | 20° C | 49% | 1022.1 hPa | 0 mm | - | 880 W/m² | - |
| 1777825135 | 20.56° C | 47% | 1021.7 hPa | 0 mm | - | 872 W/m² | - |
| 1777824831 | 20.56° C | 46% | 1021.9 hPa | 0 mm | - | 864 W/m² | - |
| 1777824528 | 20.56° C | 49% | 1021.8 hPa | 0 mm | - | 854 W/m² | - |
| 1777824224 | 20.56° C | 51% | 1021.9 hPa | 0 mm | - | 849 W/m² | - |
| 1777823919 | 20° C | 51% | 1022.1 hPa | 0 mm | - | 836 W/m² | - |
| 1777823617 | 20° C | 55% | 1022.1 hPa | 0 mm | - | 826 W/m² | - |
| 1777823314 | 20° C | 54% | 1022 hPa | 0 mm | - | 816 W/m² | - |
| 1777823012 | 19.44° C | 54% | 1022.1 hPa | 0 mm | - | 806 W/m² | - |
| 1777822710 | 19.44° C | 56% | 1022 hPa | 0 mm | - | 796 W/m² | - |
| 1777822408 | 18.89° C | 56% | 1022.1 hPa | 0 mm | - | 782 W/m² | - |
* Rain latest hour (hover to see other rain measurements)
** Current wind speed in m/s (hover to see current wind gust speed)